Meath Environmental Platform

Observations for Trim Market St

Time AQI Temp °C Hum % Pres Pa CO μg/m³ H₂S μg/m³ NO μg/m³ NO₂ μg/m³ O₃ μg/m³ SO₂ μg/m³ PM1 μg/m³ PM2.5 μg/m³ PM10 μg/m³
Wednesday 26 August 2026
08:32 2 17 84 2,147,483,647 0.24 0 1.56 16.49 42.63 0 5.7 6.1 9.7
08:31 2 16.9 84 2,147,483,647 0.24 0 1.49 14.62 40.4 0 4.99 5.64 10.78
08:30 2 16.9 84 2,147,483,647 0.25 0 1.43 18.02 42.08 0 3.56 3.77 7.53
08:29 2 16.9 84 2,147,483,647 0.25 0 1.49 17 39.31 0 4.99 6.11 11.32
08:28 2 16.9 84 2,147,483,647 0.27 0 1.46 17.67 40.2 0 5.7 6.11 11.32
08:27 2 16.9 84 2,147,483,647 0.29 0 1.64 19.97 36.4 0 4.99 7.04 11.87
08:26 2 16.9 84 2,147,483,647 0.25 0 1.72 16 46.14 0 5.7 6.58 10.79
08:23 2 16.9 84 2,147,483,647 0.23 0 1.58 14.48 39.5 0 4.99 6.11 10.79
08:22 2 16.9 84 2,147,483,647 0.23 0 1.54 14.48 41.08 0 4.99 5.65 9.16
08:21 2 16.9 84 2,147,483,647 0.23 0 1.54 17.66 39.3 0 5.7 6.58 11.33
08:20 2 16.9 84 2,147,483,647 0.22 0 1.49 14.93 37.99 0 4.99 6.58 10.24
08:18 2 16.9 84 2,147,483,647 0.24 0 1.56 15.36 43.65 0 4.28 5.65 10.79
08:17 2 16.9 84 2,147,483,647 0.23 0 1.54 13.8 42.01 0 4.99 6.58 10.25
08:16 2 16.9 84 2,147,483,647 0.3 0 1.47 14.22 39.42 0 4.28 6.12 10.25
08:15 2 16.9 84 2,147,483,647 0.24 0 1.41 14.61 43.49 0 4.99 5.65 9.16
08:14 2 16.9 84 2,147,483,647 0.26 0 1.22 19.95 38.38 0 4.99 7.05 10.79
08:12 2 16.9 84 2,147,483,647 0.23 0 0.86 20.53 35.71 0 6.41 6.58 11.88
08:09 2 17 84 2,147,483,647 0.22 0 1.4 13.67 41.33 0 4.99 6.59 10.79
08:08 2 17 84 2,147,483,647 0.21 0 1.53 14.21 39.52 0 4.99 5.19 9.16
08:07 2 17 84 2,147,483,647 0.22 0 1.42 14.21 36.11 0 4.99 5.19 8.62